TimePST,TemperatureF,Dew PointF,Humidity,Sea Level PressureIn,VisibilityMPH,Wind Direction,Wind SpeedMPH,Gust SpeedMPH,PrecipitationIn,Events,Conditions,WindDirDegrees,DateUTC
12:52 AM,57.9,41.0,53,29.87,10.0,Calm,Calm,-,N/A,,Clear,0,2013-02-06 08:52:00
1:52 AM,57.0,39.9,53,29.86,10.0,Calm,Calm,-,N/A,,Clear,0,2013-02-06 09:52:00
2:52 AM,57.9,39.0,49,29.85,10.0,WNW,4.6,-,N/A,,Clear,300,2013-02-06 10:52:00
3:52 AM,59.0,41.0,51,29.85,10.0,NNW,8.1,-,N/A,,Clear,340,2013-02-06 11:52:00
5:52 AM,46.9,39.0,74,29.86,8.0,NNW,3.5,-,N/A,,Clear,330,2013-02-06 13:52:00
6:52 AM,55.0,43.0,64,29.88,6.0,NNW,6.9,-,N/A,,Haze,340,2013-02-06 14:52:00
7:52 AM,61.0,42.1,50,29.91,9.0,Calm,Calm,-,N/A,,Clear,0,2013-02-06 15:52:00
8:52 AM,63.0,44.1,50,29.94,9.0,NNW,10.4,-,N/A,,Clear,330,2013-02-06 16:52:00
9:52 AM,68.0,42.1,39,29.95,10.0,NNW,6.9,-,N/A,,Clear,330,2013-02-06 17:52:00
10:52 AM,72.0,39.0,30,29.94,10.0,NNW,9.2,-,N/A,,Clear,330,2013-02-06 18:52:00
11:52 AM,75.0,37.9,26,29.91,10.0,WNW,8.1,-,N/A,,Clear,290,2013-02-06 19:52:00
12:52 PM,79.0,30.0,17,29.89,10.0,West,10.4,-,N/A,,Clear,280,2013-02-06 20:52:00
1:52 PM,80.1,27.0,14,29.88,10.0,WNW,10.4,-,N/A,,Clear,290,2013-02-06 21:52:00
2:52 PM,80.1,25.0,13,29.88,10.0,WNW,11.5,-,N/A,,Clear,290,2013-02-06 22:52:00
3:52 PM,79.0,24.1,13,29.89,10.0,Calm,Calm,-,N/A,,Clear,0,2013-02-06 23:52:00
4:52 PM,72.0,37.9,29,29.90,10.0,SE,5.8,-,N/A,,Clear,140,2013-02-07 00:52:00
5:52 PM,64.0,41.0,43,29.93,10.0,Calm,Calm,-,N/A,,Clear,0,2013-02-07 01:52:00
6:52 PM,59.0,41.0,51,29.95,10.0,WNW,3.5,-,N/A,,Clear,290,2013-02-07 02:52:00
8:52 PM,63.0,43.0,48,29.98,7.0,NNW,5.8,-,N/A,,Clear,330,2013-02-07 04:52:00
10:52 PM,60.1,44.1,55,30.01,6.0,NNW,10.4,-,N/A,,Haze,340,2013-02-07 06:52:00
11:52 PM,55.9,43.0,62,30.02,6.0,NNW,4.6,-,N/A,,Haze,340,2013-02-07 07:52:00